Location: Brockett
(40.8000°S, 175.4500°E)
Time: 17:24:19
(UTC+00:00)

IRS-P3 - Pass Details

Date: 04 August 2024
Orbit: 812 x 816 km, 99.0° (Epoch: 17 September)

Event Time Altitude Azimuth Distance (km) Brightness Sun altitude
Rises 17:07:00 0° 7° (N) 3,330 7.4 -25.5°
Reaches altitude 10° 17:09:21 10° 4° (N) 2,407 6.6 -25.0°
Maximum altitude 17:14:38 64° 282° (WNW) 912 4.0 -24.0°
Enters shadow 17:15:24 57° 241° (WSW) 969 4.1 -23.9°
